This demonstration page uses our WeatherBlox Daily Observations layout. Learn more.

Left ArrowRight Arrow

Hourly Observations for July 26, 2021

Temp ( °F °C ) Dew Point ( °F °C ) Humidity (%) Winds ( mph kmh ) Pressure ( in mb ) Visibility ( mi km ) Precip ( " mm )
12:53 am 00:53 Clear 82 27.8 61 16.1 49 49 SE 7 11 29.86 1011 10 16 0.00 0.00
1:53 am 01:53 Clear 82 27.8 57 13.9 42 42 SSE 10 17 29.87 1012 10 16 0.00 0.00
2:53 am 02:53 Clear 80 26.7 55 12.8 42 42 SSE 9 15 29.86 1011 10 16 0.00 0.00
3:53 am 03:53 Clear 77 25 55 12.8 47 47 SE 6 9 29.85 1011 10 16 0.00 0.00
4:53 am 04:53 Clear 76 24.4 56 13.3 50 50 ESE 3 6 29.85 1011 10 16 0.00 0.00
5:53 am 05:53 Clear 74 23.3 55 12.8 52 52 ESE 7 11 29.86 1011 10 16 0.00 0.00
6:53 am 06:53 Clear 74 23.3 57 13.9 56 56 ESE 7 11 29.85 1011 10 16 0.00 0.00
7:53 am 07:53 Sunny 75 23.9 59 15 58 58 ESE 9 15 29.87 1012 10 16 0.00 0.00
8:53 am 08:53 Sunny 78 25.6 60 15.6 54 54 SE 12 19 29.88 1012 10 16 0.00 0.00
9:53 am 09:53 Sunny 81 27.2 61 16.1 51 51 SSE 8 13 29.90 1013 10 16 0.00 0.00
10:53 am 10:53 Sunny 86 30 60 15.6 42 42 VRB 5 7 29.89 1012 10 16 0.00 0.00
11:53 am 11:53 Sunny 91 32.8 59 15 34 34 E 9 15 29.88 1012 10 16 0.00 0.00
12:53 pm 12:53 Sunny 95 35 51 10.6 23 23 Calm 29.88 1012 10 16 0.00 0.00
1:53 pm 13:53 Sunny 98 36.7 47 8.3 17 17 SE 7 11 29.86 1011 10 16 0.00 0.00
2:53 pm 14:53 Sunny 98 36.7 46 7.8 17 17 SSE 13 20 29.84 1010 10 16 0.00 0.00
3:53 pm 15:53 Sunny 101 38.3 46 7.8 15 15 SE 22 35 29.81 1009 10 16 0.00 0.00
4:53 pm 16:53 Sunny 100 37.8 48 8.9 17 17 E 10 17 29.80 1009 10 16 0.00 0.00
5:53 pm 17:53 Sunny 100 37.8 49 9.4 18 18 SSE 13 20 29.79 1009 10 16 0.00 0.00
6:53 pm 18:53 Sunny 100 37.8 49 9.4 18 18 S 12 19 29.79 1009 10 16 0.00 0.00
7:53 pm 19:53 Sunny 98 36.7 49 9.4 19 19 SE 8 13 29.80 1009 10 16 0.00 0.00
8:53 pm 20:53 Sunny 94 34.4 48 8.9 21 21 SE 10 17 29.82 1010 10 16 0.00 0.00
9:53 pm 21:53 Mostly Cloudy 87 30.6 58 14.4 37 37 N 21 33 29.87 1011 10 16 0.00 0.00
10:53 pm 22:53 Partly Cloudy 82 27.8 61 16.1 49 49 NE 10 17 29.90 1013 10 16 0.00 0.00
11:53 pm 23:53 Mostly Clear 80 26.7 60 15.6 51 51 N 3 6 29.92 1013 10 16 0.00 0.00

Powered by AerisWeather